TimePST,TemperatureF,Dew PointF,Humidity,Sea Level PressureIn,VisibilityMPH,Wind Direction,Wind SpeedMPH,Gust SpeedMPH,PrecipitationIn,Events,Conditions,WindDirDegrees,DateUTC
12:15 AM,23.0,14.0,68,30.12,10.0,SE,5.8,-,N/A,,Clear,130,2013-01-06 08:15:00
12:35 AM,23.0,15.8,74,30.12,10.0,SE,3.5,-,N/A,,Clear,140,2013-01-06 08:35:00
12:55 AM,21.2,14.0,74,30.12,10.0,SSE,4.6,-,N/A,,Clear,150,2013-01-06 08:55:00
1:15 AM,23.0,15.8,74,30.12,10.0,SE,5.8,-,N/A,,Mostly Cloudy,140,2013-01-06 09:15:00
1:35 AM,23.0,15.8,74,30.13,10.0,SE,3.5,-,N/A,,Overcast,140,2013-01-06 09:35:00
1:55 AM,23.0,15.8,74,30.13,10.0,ESE,3.5,-,N/A,,Overcast,120,2013-01-06 09:55:00
2:15 AM,24.8,15.8,69,30.13,10.0,SE,4.6,-,N/A,,Overcast,130,2013-01-06 10:15:00
2:35 AM,24.8,15.8,69,30.14,10.0,SE,5.8,-,N/A,,Overcast,130,2013-01-06 10:35:00
2:55 AM,24.8,15.8,69,30.14,10.0,SE,4.6,-,N/A,,Overcast,140,2013-01-06 10:55:00
3:15 AM,24.8,15.8,69,30.14,10.0,SSE,5.8,-,N/A,,Overcast,150,2013-01-06 11:15:00
3:35 AM,24.8,15.8,69,30.14,10.0,SE,4.6,-,N/A,,Overcast,140,2013-01-06 11:35:00
3:55 AM,24.8,15.8,69,30.14,10.0,SSE,3.5,-,N/A,,Overcast,150,2013-01-06 11:55:00
4:35 AM,24.8,15.8,69,30.13,9.0,ESE,6.9,-,N/A,,Overcast,120,2013-01-06 12:35:00
4:55 AM,24.8,17.6,74,30.12,10.0,ESE,6.9,-,N/A,,Overcast,120,2013-01-06 12:55:00
5:15 AM,24.8,17.6,74,30.12,10.0,SE,8.1,-,N/A,,Overcast,140,2013-01-06 13:15:00
5:35 AM,24.8,17.6,74,30.12,10.0,SE,6.9,-,N/A,,Overcast,140,2013-01-06 13:35:00
5:55 AM,24.8,17.6,74,30.11,10.0,ESE,5.8,-,N/A,,Overcast,120,2013-01-06 13:55:00
6:15 AM,24.8,17.6,74,30.11,10.0,ESE,6.9,-,N/A,,Overcast,120,2013-01-06 14:15:00
6:35 AM,24.8,17.6,74,30.13,10.0,SE,4.6,-,N/A,,Overcast,130,2013-01-06 14:35:00
6:55 AM,24.8,17.6,74,30.13,10.0,SSE,3.5,-,N/A,,Overcast,150,2013-01-06 14:55:00
7:15 AM,24.8,17.6,74,30.14,10.0,SE,3.5,-,N/A,,Overcast,140,2013-01-06 15:15:00
7:35 AM,24.8,17.6,74,30.14,10.0,SE,6.9,-,N/A,,Mostly Cloudy,130,2013-01-06 15:35:00
7:55 AM,23.0,17.6,80,30.15,10.0,ESE,3.5,-,N/A,,Partly Cloudy,120,2013-01-06 15:55:00
8:15 AM,23.0,17.6,80,30.15,10.0,SE,3.5,-,N/A,,Partly Cloudy,140,2013-01-06 16:15:00
8:35 AM,23.0,17.6,80,30.15,10.0,Calm,Calm,-,N/A,,Partly Cloudy,0,2013-01-06 16:35:00
8:55 AM,24.8,17.6,74,30.15,10.0,SSE,4.6,-,N/A,,Mostly Cloudy,150,2013-01-06 16:55:00
9:15 AM,26.6,17.6,69,30.16,10.0,ESE,4.6,-,N/A,,Mostly Cloudy,120,2013-01-06 17:15:00
9:35 AM,28.4,17.6,64,30.16,10.0,SE,4.6,-,N/A,,Partly Cloudy,130,2013-01-06 17:35:00
9:55 AM,28.4,17.6,64,30.16,10.0,SE,4.6,-,N/A,,Clear,130,2013-01-06 17:55:00
10:15 AM,32.0,19.4,60,30.16,10.0,SE,4.6,-,N/A,,Clear,140,2013-01-06 18:15:00
10:35 AM,32.0,19.4,60,30.16,10.0,ESE,3.5,-,N/A,,Clear,110,2013-01-06 18:35:00
10:55 AM,32.0,19.4,60,30.15,10.0,ESE,3.5,-,N/A,,Clear,120,2013-01-06 18:55:00
11:15 AM,33.8,19.4,56,30.14,10.0,East,5.8,-,N/A,,Clear,90,2013-01-06 19:15:00
11:35 AM,33.8,19.4,56,30.13,10.0,SE,4.6,-,N/A,,Clear,130,2013-01-06 19:35:00
11:55 AM,35.6,19.4,52,30.13,10.0,ESE,3.5,-,N/A,,Clear,110,2013-01-06 19:55:00
12:15 PM,35.6,19.4,52,30.12,10.0,Calm,Calm,-,N/A,,Clear,0,2013-01-06 20:15:00
12:35 PM,37.4,19.4,48,30.11,10.0,East,4.6,-,N/A,,Clear,80,2013-01-06 20:35:00
12:55 PM,37.4,19.4,48,30.11,10.0,Calm,Calm,-,N/A,,Clear,0,2013-01-06 20:55:00
1:15 PM,37.4,19.4,48,30.10,8.0,East,3.5,-,N/A,,Clear,90,2013-01-06 21:15:00
1:35 PM,39.2,19.4,45,30.09,10.0,SE,3.5,-,N/A,,Clear,130,2013-01-06 21:35:00
1:55 PM,39.2,21.2,49,30.08,10.0,SE,3.5,-,N/A,,Clear,130,2013-01-06 21:55:00
2:15 PM,39.2,19.4,45,30.09,10.0,Calm,Calm,-,N/A,,Clear,0,2013-01-06 22:15:00
2:35 PM,39.2,19.4,45,30.09,10.0,Calm,Calm,-,N/A,,Clear,0,2013-01-06 22:35:00
2:55 PM,39.2,19.4,45,30.09,10.0,Calm,Calm,-,N/A,,Clear,0,2013-01-06 22:55:00
3:15 PM,39.2,19.4,45,30.08,10.0,East,3.5,-,N/A,,Clear,90,2013-01-06 23:15:00
3:35 PM,39.2,19.4,45,30.08,10.0,East,4.6,-,N/A,,Clear,100,2013-01-06 23:35:00
3:55 PM,39.2,19.4,45,30.08,10.0,East,3.5,-,N/A,,Clear,100,2013-01-06 23:55:00
4:15 PM,37.4,19.4,48,30.09,10.0,East,3.5,-,N/A,,Clear,100,2013-01-07 00:15:00
4:35 PM,35.6,19.4,52,30.09,10.0,East,4.6,-,N/A,,Clear,100,2013-01-07 00:35:00
4:55 PM,35.6,19.4,52,30.08,10.0,East,4.6,-,N/A,,Clear,100,2013-01-07 00:55:00
5:15 PM,33.8,19.4,56,30.08,10.0,ESE,5.8,-,N/A,,Clear,120,2013-01-07 01:15:00
5:35 PM,32.0,19.4,60,30.09,10.0,ESE,3.5,-,N/A,,Clear,120,2013-01-07 01:35:00
5:55 PM,30.2,19.4,64,30.10,10.0,ESE,6.9,-,N/A,,Clear,110,2013-01-07 01:55:00
6:15 PM,32.0,19.4,60,30.10,10.0,ESE,6.9,-,N/A,,Clear,110,2013-01-07 02:15:00
6:35 PM,30.2,19.4,64,30.11,10.0,SE,4.6,-,N/A,,Clear,130,2013-01-07 02:35:00
7:15 PM,28.4,17.6,64,30.10,10.0,ESE,8.1,-,N/A,,Clear,120,2013-01-07 03:15:00
7:55 PM,28.4,19.4,69,30.08,10.0,ESE,5.8,-,N/A,,Clear,120,2013-01-07 03:55:00
8:35 PM,30.2,17.6,60,30.09,10.0,ESE,6.9,-,N/A,,Clear,110,2013-01-07 04:35:00
8:55 PM,32.0,17.6,55,30.10,10.0,SE,8.1,-,N/A,,Clear,130,2013-01-07 04:55:00
9:35 PM,30.2,17.6,60,30.10,10.0,SE,9.2,-,N/A,,Clear,130,2013-01-07 05:35:00
9:55 PM,30.2,17.6,60,30.10,10.0,SE,9.2,-,N/A,,Clear,130,2013-01-07 05:55:00
10:15 PM,30.2,17.6,60,30.09,10.0,ESE,6.9,-,N/A,,Partly Cloudy,120,2013-01-07 06:15:00
10:35 PM,30.2,17.6,60,30.09,10.0,ESE,9.2,-,N/A,,Partly Cloudy,120,2013-01-07 06:35:00
10:55 PM,30.2,15.8,55,30.09,10.0,ESE,9.2,-,N/A,,Mostly Cloudy,120,2013-01-07 06:55:00
11:15 PM,30.2,15.8,55,30.08,10.0,SE,9.2,-,N/A,,Mostly Cloudy,130,2013-01-07 07:15:00
11:35 PM,28.4,17.6,64,30.07,10.0,SE,6.9,-,N/A,,Partly Cloudy,130,2013-01-07 07:35:00
11:55 PM,30.2,17.6,60,30.07,10.0,SSE,5.8,-,N/A,,Partly Cloudy,160,2013-01-07 07:55:00